THOR AGENA B DEB, 1951

Orbit data source: Space-Track

THOR AGENA B DEB, 1951 is space debris in LEO originally from a launch on Mon, 29 Nov 1965 UTC launched from the Air Force Western Test Range (AFWTR). Debris objects in space refer to the collection of defunct objects orbiting the Earth. Examples of debris include non-operational satellites, rocket bodies, and fragments generated from explosions, collisions, or faulty payload assembly.

Loading next visibility...
Identifier
1951, 1965-098G
Orbit
LEO
Country
Flag of USUS
Related business
Manufacturer
Unknown
Mission
Spacecraft
Bus & Motor
Unknown
Mass
~1 kg wet, ~1 kg dry
Launch date (UTC)
1965-11-29 (60 years ago)
Launch vehicle
Unknown
Launch site
Air Force Western Test Range (AFWTR)
Object type
Payload
Rocket body
Debris
Shape & HBR
Unknown
Radar Cross Section
Medium (>0.1 m² and <1 m²)

Expand to show TLE details & history
Last TLE update: 1 day ago

TLE from 1 day ago
0 THOR AGENA B DEB
1 01951U 65098G   26105.45742102  .00005002  00000-0  91058-3 0  9996
2 01951  79.6155  12.1245 0766798  52.8896 313.9835 13.57745124799115
Epoch: 2026-04-15T10:58Z
TLE epoch observation values (Epoch: 2026-04-15T10:58:41.176Z)
Latitude
0.00003°
Longitude
3.8339°
Altitude
675.852 km
Speed
7.704 km/s
True Right ascension
00h 48m 29s
True Declination
0° 00' 00"
Sunlit
Object was in daylight at epoch
Visualization orbit readout
Latitude
Unknown
Longitude
Unknown
Altitude
Unknown
Speed
Unknown
Apparent Right ascension
Unknown
Apparent Declination
Unknown
Sunlit
N/A
Visualization observer readout
Local Sidereal Time
17:24:16
Azimuth
Unknown
Elevation
Unknown
Doppler factor
Unknown
Orbital elements
Apogee altitude
1,610.115 km
Perigee altitude
472.288 km
Semi-major axis
7,419.339 km
Eccentricity
0.07668
Inclination
79.6155°
RAAN
12.1245°
Arg. of periapsis
52.8896°
True anomaly
307.22737°
Mean anomaly
313.9835°
Eccentric anomaly
310.6502°
Mean motion
3.39622 °/min
Orbital period
106 mins
BSTAR
0.00091058
Loading maneuver chart data...
Computing Atmospheric mass density...
Loading historical data...
Loading historical data...
Loading historical data...
Loading historical data...
Loading historical data...
Loading historical data...
Loading historical data...

Documentation

Showing up to 5 results
|